This is the latest recevied weather packets stored in our database for station/object IU3OVK-13. If no packets are shown the sender has not sent any weather packets the latest 10 day(s).
| Time | Temp. | Humidity | Pressure | Rain* | Wind** | Luminosity | Snow |
|---|---|---|---|---|---|---|---|
| 1788175703 | 34.44° C | 79% | 1009.8 hPa | - | - | - | - |
| 1788175083 | 33.89° C | 77% | 1015.4 hPa | - | - | - | - |
| 1788173841 | 45° C | 63% | 973.2 hPa | - | - | - | - |
| 1788173221 | 42.22° C | 65% | 982.4 hPa | - | - | - | - |
| 1788172600 | 42.22° C | 65% | 973.1 hPa | - | - | - | - |
| 1788171980 | 43.33° C | 66% | 985.4 hPa | - | - | - | - |
| 1788171360 | 42.22° C | 68% | 992.1 hPa | - | - | - | - |
| 1788170740 | 43.33° C | 67% | 990.7 hPa | - | - | - | - |
| 1788169500 | 45.56° C | 65% | 971.4 hPa | - | - | - | - |
| 1788168879 | 42.22° C | 70% | 992.7 hPa | - | - | - | - |
| 1788168259 | 43.89° C | 67% | 970.2 hPa | - | - | - | - |
| 1788167639 | 45.56° C | 68% | 974.6 hPa | - | - | - | - |
| 1788167019 | 42.78° C | 70% | 978.7 hPa | - | - | - | - |
| 1788166398 | 43.33° C | 72% | 979.5 hPa | - | - | - | - |
| 1788165778 | 43.33° C | 75% | 984.7 hPa | - | - | - | - |
| 1788165158 | 38.33° C | 79% | 998.4 hPa | - | - | - | - |
| 1788164538 | 39.44° C | 79% | 993 hPa | - | - | - | - |
| 1788163918 | 37.78° C | 83% | 1001 hPa | - | - | - | - |
| 1788163297 | 38.33° C | 86% | 1000.3 hPa | - | - | - | - |
| 1788162677 | 36.11° C | 91% | 1005.4 hPa | - | - | - | - |
| 1788162057 | 36.11° C | 92% | 1004.6 hPa | - | - | - | - |
| 1788161437 | 35° C | 99% | 1008.7 hPa | - | - | - | - |
| 1788160817 | 36.11° C | 99% | 1006.2 hPa | - | - | - | - |
| 1788158957 | 30.56° C | 99% | 1008.4 hPa | - | - | - | - |
| 1788158336 | 30° C | 99% | 1009.5 hPa | - | - | - | - |
* Rain since midnight (hover to see other rain measurements)
** Current wind speed in m/s (hover to see current wind gust speed)